Location: Newark
(45.2500°N, 7.5833°E)
Time: 18:35:50
(UTC+00:00)

Tiros 1 despin weight - Pass Details

Date: 28 January 2020
Orbit: 594 x 642 km, 48.2° (Epoch: 27 February)

Event Time Altitude Azimuth Distance (km) Brightness Sun altitude
Rises 15:31:58 0° 289° (WNW) 2,907 ? 8.0°
Reaches altitude 10° 15:34:25 10° 280° (W) 2,005 ? 7.6°
Maximum altitude 15:38:36 34° 216° (SW) 1,038 ? 7.0°
Drops below altitude 10° 15:42:48 10° 151° (SSE) 2,017 ? 6.4°
Sets 15:45:17 0° 142° (SE) 2,927 ? 6.1°
